Regional Weather Roundup
Issued by NWS Kansas City/Pleasant Hill, MO

Home | Current Version | Previous Version | Graphics & Text | Print | Product List | Glossary Off
Versions: 1 2 3 4 5 6 7 8 9 10 11 12 13 14 15 16 17 18 19 20 21 22 23 24 25 26 27 28 29 30 31 32 33 34 35 36 37 38 39 40 41 42 43 44 45 46 47 48 49 50

000
ASUS43 KEAX 210711
RWREAX

WEATHER ROUNDUP FOR EASTERN KANSAS AND NORTHWEST MISSOURI
NATIONAL WEATHER SERVICE KANSAS CITY/PLEASANT HILL MO
100 AM CST SUN DEC 21 2014

KSZ040-057-103>105-MOZ028-029-037-043-210800-
...KANSAS CITY METROPOLITAN AREA...

CITY           SKY/WX    TMP DP  RH WIND       PRES   REMARKS
K.C. INTL      PTCLDY    35  33  92 S12       30.09F WCI  27
K.C. DOWNTOWN  PTCLDY    37  32  82 S9        30.10F WCI  30
LEES SUMMIT    PTCLDY    35  32  88 S10       30.11F WCI  27
OLATHE - IXD   PTCLDY    33  32  96 S12       30.09F WCI  24
OLATHE - OJC   PTCLDY    34  32  92 S10       30.09F FOG     WCI  26
LAWRENCE       PTCLDY    35  32  88 S8        30.09F WCI  29

$$

MOZ001>008-011>017-020>025-030>033-038>040-044>046-053-054-210800-
...NORTHERN AND CENTRAL MISSOURI...

CITY           SKY/WX    TMP DP  RH WIND       PRES   REMARKS
ST. JOSEPH     PTCLDY    35  32  88 S8        30.09F WCI  29
MOSBY            N/A     36  32  87 S5        30.11F WCI  32
WARRENSBURG    CLOUDY    37  34  87 S5        30.13F WCI  34
WHITEMAN AFB   CLOUDY    40  35  82 S10       30.13F WCI  34
CLINTON        CLOUDY    43  37  81 S9        30.16F
SEDALIA        CLOUDY    42  35  76 S9        30.16F
WARSAW         NOT AVBL
MARSHALL       CLOUDY    43  37  81 S7        30.16F
CHILLICOTHE      N/A     39  35  86 S7        30.14F WCI  34
MOBERLY        CLOUDY    39  34  81 S3        30.17F
KIRKSVILLE     CLOUDY    38  36  92 S6        30.15F WCI  33

$$

MOZ041-047>049-056>058-063>065-088>090-097-210800-
...EASTERN AND SOUTHERN MISSOURI...

CITY           SKY/WX    TMP DP  RH WIND       PRES   REMARKS
ST. LOUIS INTL CLOUDY    42  32  67 S7        30.23F
SPIRIT OF STL  CLOUDY    41  34  76 S3        30.22F
COLUMBIA       CLOUDY    40  35  83 S9        30.18F WCI  34
JEFFERSON CITY CLOUDY    42  35  76 SE5       30.19F
MEXICO         CLOUDY    41  41 100 S9        30.18F
HANNIBAL       CLOUDY    39  34  81 S3        30.18S
ROLLA          CLOUDY    39  33  79 S6        30.17F WCI  35
LEBANON        MOCLDY    41  36  81 S7        30.17F
OSAGE BEACH    CLOUDY    43  34  70 S3        30.18F
SPRINGFIELD    CLOUDY    40  36  86 S6        30.16F
BRANSON        CLOUDY    39  37  93 CALM      30.18F
NEVADA         CLOUDY    41  36  81 S10       30.14F WCI  35
JOPLIN         CLOUDY    43  37  79 S7        30.16F
WEST PLAINS    CLOUDY    39  35  86 SE3       30.20F

$$

IAZ060-094-KSZ022-034>040-054-083-096-NEZ052-066-093-210800-
...KANSAS...SOUTHEAST NEBRASKA AND IOWA...

CITY           SKY/WX    TMP DP  RH WIND       PRES   REMARKS
TOPEKA         MOCLDY   N/A N/A N/A S6        30.08F
MANHATTAN      CLOUDY    42  38  85 SW14      30.04F WCI  35
EMPORIA        CLOUDY    35  33  92 S10       30.07F WCI  27
CHANUTE        CLOUDY    40  36  86 S10       30.12F WCI  33
WICHITA        CLOUDY    43  37  79 S13       30.05F
OMAHA          CLOUDY    36  35  96 SE10      30.01F FOG     WCI  28
LINCOLN        PTCLDY    33  32  96 S7        29.98F FOG     WCI  27
FALLS CITY     PTCLDY    35  32  88 S9        30.04F WCI  28
LAMONI         CLOUDY    37  35  92 S13       30.07F WCI  29
DES MOINES     CLOUDY    38  36  92 S9        30.08F FOG     WCI  31

$$




USA.gov is the U.S. government's official web portal to all federal, state and local government web resources and services.